Regional Weather Roundup
Issued by NWS

Home | Current Version | Previous Version | Graphics & Text | Print | Product List | Glossary On
Versions: 1 2 3 4 5 6 7 8 9 10 11 12 13 14 15 16 17 18 19 20 21 22 23 24 25 26 27 28 29 30 31 32 33 34 35 36 37 38 39 40 41 42 43 44 45 46 47 48 49 50
000
ASUS44 KMEG 191410
RWRTN
TENNESSEE HOURLY STATE WEATHER ROUNDUP
NATIONAL WEATHER SERVICE MEMPHIS TN
900 AM CDT SUN APR 19 2015

TNZ002-004-019-021-049-052-054-088>092-191500-
WEST TENNESSEE

CITY           SKY/WX    TMP DP  RH WIND       PRES   REMARKS
MEMPHIS INTL   CLOUDY    68  64  87 SW7       29.63F
NWS MEMPHIS      N/A     65 N/A N/A MISG        N/A
JACKSON        CLOUDY    67  63  87 S7        29.64F
DYERSBURG      CLOUDY    64  54  68 S5        29.64F
UNION CITY     CLOUDY    63  32  31 S3        29.63F VSB 3/4
PARIS          CLOUDY    63  63 100 S5        29.65F
LEXINGTON      CLOUDY    66  64  94 SW8       29.65F
SAVANNAH       CLOUDY    66  32  28 SW10      29.67F
$$

TNZ008-025-027-028-033-062-065-066-191500-
NORTH MIDDLE TENNESSEE

CITY           SKY/WX    TMP DP  RH WIND       PRES   REMARKS
NASHVILLE      RAIN      66  64  94 SE6       29.63F FOG
CLARKSVILLE    LGT RAIN  65  64  97 CALM      29.65F FOG
SMYRNA         LGT RAIN  66  66 100 SE10      29.64F FOG
COOKEVILLE     CLOUDY    66  64  94 SE7         N/A
CROSSVILLE     RAIN      63  61  93 SE8       29.76F FOG
$$

TNZ061-075-076-078-094-096-097-191500-
SOUTH MIDDLE TENNESSEE

CITY           SKY/WX    TMP DP  RH WIND       PRES   REMARKS
FAYETTEVILLE   CLOUDY    64  64 100 SW13      29.69S
TULLAHOMA      CLOUDY    66  63  88 S8        29.69F
WINCHESTER     PTSUNNY   70  64  83 S10       29.70F
MCMINNVILLE    PTSUNNY   70  70 100 VRB5      29.69F
COLUMBIA       CLOUDY    66  32  28 W9        29.65R
SHELBYVILLE    CLOUDY    70  66  88 S14       29.67F
$$

TNZ017-018-042-046-047-191500-
NORTHEAST TENNESSEE

CITY           SKY/WX    TMP DP  RH WIND       PRES   REMARKS
TRI CITIES     LGT RAIN  64  59  83 E7        29.88F
ELIZABETHTON   LGT RAIN  63  57  82 E8        29.89F
$$

TNZ012-013-036-069-073-074-191500-
CENTRAL EAST TENNESSEE

CITY           SKY/WX    TMP DP  RH WIND       PRES   REMARKS
KNOXVILLE      CLOUDY    64  62  93 E5        29.79F
OAK RIDGE      LGT RAIN  64  62  93 NE3       29.80F FOG
GATLINBURG     PTSUNNY   63  63 100 CALM      29.80F
MORRISTOWN     SUNNY     64  63  94 E10       29.82F
$$

TNZ083-085-099-191500-
SOUTHEAST TENNESSEE

CITY           SKY/WX    TMP DP  RH WIND       PRES   REMARKS
CHATTANOOGA    LGT RAIN  68  66  93 SE5       29.74F FOG
$$

SKY/WX REPORTED AS FAIR MEANS FEW OR NO CLOUDS BELOW
12 THOUSAND FEET.



USA.gov is the U.S. government's official web portal to all federal, state and local government web resources and services.